User: anonymous   Login
Location: Petruro
(41.0333°N, 14.7833°E)
Time: 15:54:56
(UTC+00:00)
Language:

Cosmos 1242 Rocket - Orbit

View from above orbital plane
View from above orbital plane
View from above satellite
View from above satellite

Ground track
Ground track

The orbit data is extracted from the following two-line orbital elements,

1 12155U 81008B   21270.54635425  .00002053  00000-0  60807-4 0  9992
2 12155  81.1646   2.0921 0027849  27.9316 332.3410 15.33981001231861
Epoch (UTC): 27 September 2021 13:06:45
Eccentricity: 0.0027849
inclination: 81.1646°
perigee height: 445 km
apogee height: 483 km
right ascension of ascending node: 2.0921°
argument of perigee: 27.9316°
revolutions per day: 15.33981001
mean anomaly at epoch: 332.3410°
orbit number at epoch: 23186

The dashed part of the orbit path shows where the satellite is in the earth's shadow,  

DLR